Weather History for PAQT - January, 2013

Change the Weather History Date:

Thursday, January 17, 2013

  Actual Average (PAKU) Record (PAKU)
Temperature  
Mean Temperature -34 °F -  
Max Temperature -29 °F -7 °F 37 °F (2009)
Min Temperature -38 °F -16 °F -51 °F (1991)
Degree Days  
Heating Degree Days 98    
Moisture  
Dew Point -34 °F    
Average Humidity 77    
Maximum Humidity 77    
Minimum Humidity 77    
Precipitation  
Precipitation 0.00 in - - ()
Sea Level Pressure  
Sea Level Pressure 30.60 in    
Wind  
Wind Speed 8 mph (SW)    
Max Wind Speed 18 mph    
Max Gust Speed -    
Visibility 4 miles    
Events      
Averages and records for this station are not official NWS values.
T = Trace of Precipitation, MM = Missing Value Source: NWS Daily Summary

Daily Weather History Graph

Daily Weather History Graph

Search for Another Location

Airport or City:

Trip Planner

Search our weather history database for the weather conditions in past years. The results will help you decide how hot, cold, wet, or windy it might be!

Date:

Astronomy

Jan. 17, 2013 Rise Set
Actual Time 12:56 PM AKST 1:32 PM AKST
Civil Twilight 10:16 AM AKST 4:12 PM AKST
Nautical Twilight 8:45 AM AKST 5:43 PM AKST
Astronomical Twilight 7:30 AM AKST 6:59 PM AKST
Moon 10:23 AM AKST (1/17) 1:05 AM AKST (1/17)
Length of Visible Light 5h 56m
Length of Day
0h 36m
Waxing Crescent, 39% of the Moon is Illuminated
Jan 17
Waxing Crescent
Jan 18
First Quarter
Jan 26
Full
Feb 3
Last Quarter
Feb 9
New

Hourly Weather History & Observations

Time (AKST) Temp. Windchill Dew Point Humidity Pressure Visibility Wind Dir Wind Speed Gust Speed Precip Events Conditions
12:53 AM -32.1 °F -51.6 °F - N/A% 30.53 in 6.0 mi SW 6.9 mph - N/A   Haze
1:53 AM -31.0 °F -53.4 °F - N/A% 30.53 in 4.0 mi WSW 9.2 mph - N/A   Haze
3:03 AM -29.2 °F -52.5 °F - N/A% 30.52 in 2.0 mi West 10.4 mph - N/A   Mist
3:22 AM -29.2 °F -53.7 °F - N/A% 30.52 in 3.0 mi WSW 11.5 mph - N/A   Mist
3:53 AM -29.0 °F -47.9 °F -34.1 °F 77% 30.53 in 4.0 mi WSW 6.9 mph - N/A   Haze
4:53 AM -29.9 °F -47.1 °F - N/A% 30.52 in 3.0 mi WSW 5.8 mph - N/A   Scattered Clouds
5:53 AM -33.0 °F -50.7 °F - N/A% 30.53 in 3.0 mi SSW 5.8 mph - N/A   Clear
6:14 AM -34.6 °F -50.3 °F - N/A% 30.53 in 4.0 mi SSW 4.6 mph - N/A   Haze
6:53 AM -34.1 °F -49.7 °F - N/A% 30.53 in 7.0 mi SW 4.6 mph - N/A   Mostly Cloudy
7:08 AM -34.6 °F -50.3 °F - N/A% 30.53 in 9.0 mi WSW 4.6 mph - N/A   Scattered Clouds
7:53 AM -35.0 °F -47.8 °F - N/A% 30.54 in 10.0 mi SW 3.5 mph - N/A   Clear
8:53 AM -36.0 °F -49.0 °F - N/A% 30.56 in 10.0 mi WSW 3.5 mph - N/A   Clear
9:53 AM -36.0 °F -49.0 °F - N/A% 30.57 in 5.0 mi WNW 3.5 mph - N/A   Haze
10:53 AM -36.0 °F - - N/A% 30.58 in 5.0 mi Calm Calm - N/A   Haze
11:53 AM -38.0 °F -54.3 °F - N/A% 30.58 in 2.5 mi SSW 4.6 mph - N/A   Clear
12:04 PM -38.2 °F -56.9 °F - N/A% 30.58 in 10.0 mi SSW 5.8 mph - N/A   Clear
12:53 PM -36.9 °F -57.4 °F - N/A% 30.60 in 10.0 mi SW 6.9 mph - N/A   Clear
1:53 PM -36.9 °F -55.4 °F - N/A% 30.61 in 4.0 mi SW 5.8 mph - N/A   Haze
2:53 PM -38.0 °F -58.7 °F - N/A% 30.62 in 10.0 mi SW 6.9 mph - N/A   Clear
3:16 PM -38.2 °F -60.7 °F - N/A% 30.61 in 2.5 mi SW 8.1 mph - N/A   Clear
3:24 PM -38.2 °F -58.9 °F - N/A% 30.61 in 4.0 mi SSW 6.9 mph - N/A   Haze
3:53 PM -36.0 °F -61.0 °F - N/A% 30.62 in 10.0 mi WSW 10.4 mph - N/A   Scattered Clouds
4:53 PM -34.1 °F -58.5 °F - N/A% 30.63 in 5.0 mi SW 10.4 mph - N/A   Haze
5:04 PM -34.6 °F -56.3 °F - N/A% 30.63 in 2.5 mi SW 8.1 mph - N/A   Overcast
5:31 PM -34.6 °F -60.5 °F - N/A% 30.63 in 2.5 mi SW 11.5 mph - N/A   Partly Cloudy
5:46 PM -34.6 °F -60.5 °F - N/A% 30.63 in 3.0 mi SW 11.5 mph - N/A   Clear
5:53 PM -35.0 °F -62.1 °F - N/A% 30.63 in 4.0 mi SW 12.7 mph - N/A   Haze
6:53 PM -34.1 °F -62.0 °F - N/A% 30.64 in 3.0 mi SW 13.8 mph - N/A   Mostly Cloudy
7:03 PM -34.6 °F -63.7 °F - N/A% 30.64 in 2.5 mi SW 15.0 mph - N/A   Mostly Cloudy
7:22 PM -34.6 °F -62.7 °F - N/A% 30.64 in 2.0 mi SW 13.8 mph - N/A   Scattered Clouds
7:49 PM -32.8 °F -60.4 °F - N/A% 30.64 in 1.8 mi SW 13.8 mph - N/A   Mostly Cloudy
7:53 PM -33.0 °F -60.6 °F - N/A% 30.65 in 1.8 mi SW 13.8 mph - N/A   Mostly Cloudy
8:17 PM -31.0 °F -60.8 °F - N/A% 30.64 in 1.5 mi WSW 17.3 mph - N/A   Overcast
8:53 PM -31.0 °F -61.6 °F - N/A% 30.65 in 1.2 mi WSW 18.4 mph - N/A   Mostly Cloudy
9:02 PM -31.0 °F -61.6 °F - N/A% 30.64 in 1.2 mi WSW 18.4 mph - N/A   Scattered Clouds
9:40 PM -29.2 °F -59.3 °F - N/A% 30.65 in 2.0 mi WSW 18.4 mph - N/A   Mostly Cloudy
9:53 PM -29.9 °F - - N/A% 30.65 in 2.0 mi North - - N/A   Scattered Clouds
10:53 PM -29.9 °F - - N/A% 30.66 in 3.0 mi North - - N/A   Partly Cloudy
11:53 PM -31.0 °F - - N/A% 30.67 in 2.5 mi North - - N/A   Clear